OBJECT DM, 66773

Orbit data source: Space-Track

You're viewing an uncataloged RSO

Recently launched and/or uncataloged RSOs may have evolving metadata. Metadata may include the following, but is not limited to: Owner, Manufacturer, Bus, Motor, and Mission.

OBJECT DM, 66773 is a satellite in SSO that was launched on Fri, 28 Nov 2025 UTC via an FALCON 9 launch vehicle from the Air Force Western Test Range (AFWTR). Unknown objects in Earth's orbit typically refer to objects detected orbiting the Earth but have not yet been identified or cataloged. These objects could be anything from previously untracked satellites, spent rocket stages, debris from satellite collisions, or even natural meteoroids temporarily captured by Earth's gravity.

Loading next visibility...
Identifier
66773, 2025-276DM
Orbit
SSO
Country
Flag of TBDTBD
Related business
None
Manufacturer
Unknown
Mission
Operational Commercial Communications
Bus & Motor
Unknown
Mass
Unknown
Launch date (UTC)
2025-11-28 (9 months ago)
Launch vehicle
FALCON 9
Launch site
Air Force Western Test Range (AFWTR)
Object type
Unknown
Shape & HBR
Box, 0.2 m
Radar Cross Section
0.100 m², Medium (>0.1 m² and < 1m²)

Expand to show TLE details & history
Last TLE update: 9 hours ago

TLE from 9 hours ago
0 OBJECT DM
1 66773U 25276DM  26238.61897958  .00004550  00000-0  20800-3 0  9992
2 66773  97.4179 311.4208 0001575  36.2947 323.8396 15.21053050 41142
Epoch: 2026-08-26T14:51Z
TLE epoch observation values (Epoch: 2026-08-26T14:51:19.835Z)
Latitude
0.00004°
Longitude
113.71877°
Altitude
504.879 km
Speed
7.612 km/s
True Right ascension
20h 45m 40s
True Declination
0° 00' 00"
Sunlit
Object was in full shadow at epoch
Visualization orbit readout
Latitude
Unknown
Longitude
Unknown
Altitude
Unknown
Speed
Unknown
Apparent Right ascension
Unknown
Apparent Declination
Unknown
Sunlit
N/A
Visualization observer readout
Local Sidereal Time
15:15:11
Azimuth
Unknown
Elevation
Unknown
Doppler factor
Unknown
Orbital elements
Apogee altitude
500.711 km
Perigee altitude
498.545 km
Semi-major axis
6,877.765 km
Eccentricity
0.00016
Inclination
97.4179°
RAAN
311.4208°
Arg. of periapsis
36.2947°
True anomaly
323.82895°
Mean anomaly
323.8396°
Eccentric anomaly
323.83427°
Mean motion
3.80515 °/min
Orbital period
94.61 mins
BSTAR
0.000208
Loading maneuver chart data...
Computing Atmospheric mass density...
Loading historical data...
Loading historical data...
Loading historical data...
Loading historical data...
Loading historical data...
Loading historical data...
Loading historical data...

Documentation

Showing up to 5 results
|